This demonstration page uses our WeatherBlox Daily Observations layout. Learn more.

Hourly Observations for March 29, 2017

Temp ( °F °C ) Dew Point ( °F °C ) Humidity (%) Winds ( mph kmh ) Pressure ( in mb ) Visibility ( mi km ) Precip ( " mm )
12:15 am 00:15 Cloudy with Light Drizzle 42 5.8 41 5 95 95 NE 12 19 30.12 1020 3 4.82802 0 0
12:35 am 00:35 Cloudy with Light Rain 42 5.7 41 5 95 95 ENE 15 24 30.09 1019 3 4.82802 0.01 0.254
12:55 am 00:55 Cloudy with Light Drizzle 42 5.6 41 4.9 95 95 ENE 15 24 30.09 1019 3 4.82802 0.01 0.254
1:15 am 01:15 Cloudy with Mist and Fog 42 5.7 41 5 95 95 ENE 14 22 30.09 1019 3 4.82802 0 0
1:35 am 01:35 Cloudy with Mist and Fog 42 5.7 41 5 95 95 ENE 12 19 30.09 1019 4 6.43736 0 0
1:55 am 01:55 Cloudy with Mist and Fog 42 5.7 41 5 95 95 NE 14 22 30.09 1019 4 6.43736 0 0
2:15 am 02:15 Cloudy with Mist and Fog 42 5.7 41 5 95 95 NE 12 19 30.09 1019 4 6.43736 0 0
2:35 am 02:35 Cloudy with Mist and Fog 42 5.6 40 4.7 94 94 NE 12 19 30.09 1019 4 6.43736 0 0
2:55 am 02:55 Cloudy with Mist and Fog 42 5.6 41 4.8 95 95 NE 13 20 30.09 1019 3 4.82802 0 0
3:15 am 03:15 Cloudy with Mist and Fog 42 5.6 41 4.8 95 95 NE 13 20 30.06 1018 3 4.82802 0 0
3:35 am 03:35 Cloudy with Light Rain 42 5.6 41 4.9 95 95 NNE 12 19 30.06 1018 3 4.82802 0 0
3:55 am 03:55 Cloudy with Light Drizzle 42 5.6 41 5 96 96 NNE 14 22 30.06 1018 3 4.82802 0 0
4:15 am 04:15 Cloudy with Drizzle 42 5.6 41 5 96 96 NNE 16 26 30.06 1018 3 4.82802 0 0
4:35 am 04:35 Cloudy with Light Rain 42 5.6 41 5 96 96 NNE 14 22 30.06 1018 2.5 4.02335 0 0
4:55 am 04:55 Cloudy with Light Drizzle 42 5.6 41 5 96 96 NNE 14 22 30.06 1018 2.5 4.02335 0.01 0.254
5:15 am 05:15 Cloudy with Drizzle 42 5.6 41 5 96 96 N 15 24 30.06 1018 3 4.82802 0 0
5:35 am 05:35 Cloudy with Light Rain 42 5.6 41 5 96 96 N 15 24 30.06 1018 3 4.82802 0.01 0.254
5:55 am 05:55 Cloudy with Light Drizzle 42 5.6 41 5 96 96 NNE 16 26 30.06 1018 4 6.43736 0.01 0.254
6:15 am 06:15 Cloudy with Light Drizzle 42 5.7 41 5.1 96 96 NNE 17 28 30 1016 5 8.0467 0 0
6:35 am 06:35 Cloudy with Light Rain 42 5.7 41 5 95 95 NNE 20 31 30 1016 4 6.43736 0 0
6:55 am 06:55 Cloudy with Light Rain 42 5.7 41 5 95 95 NNE 16 26 30 1016 4 6.43736 0 0
7:15 am 07:15 Cloudy with Mist and Fog 42 5.7 41 5 95 95 NNE 20 31 30 1016 5 8.0467 0 0
7:35 am 07:35 Cloudy 42 5.7 41 5 95 95 NNE 17 28 30 1016 7 11.26538 0 0
7:55 am 07:55 Cloudy 42 5.7 41 5 95 95 NNE 17 28 30 1016 7 11.26538 0 0
8:15 am 08:15 Cloudy 42 5.8 41 5 95 95 NNE 17 28 30 1016 7 11.26538 0 0
8:35 am 08:35 Cloudy 42 5.8 41 5 95 95 NNE 17 28 30 1016 7 11.26538 0 0
8:55 am 08:55 Cloudy with Light Drizzle 42 5.8 41 5 95 95 NNE 17 28 30 1016 4 6.43736 0 0
9:15 am 09:15 Cloudy with Light Rain 42 5.8 41 5 95 95 NNE 20 31 30 1016 7 11.26538 0 0
9:35 am 09:35 Cloudy with Light Rain 42 5.8 41 5 95 95 NNE 18 30 30 1016 5 8.0467 0 0
9:55 am 09:55 Cloudy with Mist and Fog 42 5.8 41 5 95 95 NNE 17 28 30 1016 4 6.43736 0 0
10:15 am 10:15 Cloudy with Light Drizzle 42 5.8 41 5 95 95 NNE 18 30 30 1016 3 4.82802 0 0
10:35 am 10:35 Cloudy with Mist and Fog 42 5.8 41 5 95 95 NNE 21 33 30 1016 3 4.82802 0 0
10:55 am 10:55 Cloudy with Light Rain 43 6 41 5.1 94 94 NNE 17 28 30 1016 4 6.43736 0 0
11:15 am 11:15 Cloudy with Light Rain 43 6 41 5.1 94 94 NNE 18 30 30 1016 3 4.82802 0.01 0.254
11:35 am 11:35 Cloudy with Light Rain 43 6 41 5.2 95 95 NNE 21 33 30 1016 4 6.43736 0.03 0.762
11:55 am 11:55 Cloudy with Light Rain 43 6.1 42 5.3 95 95 NNE 21 33 29.97 1015 5 8.0467 0.05 1.27
12:15 pm 12:15 Cloudy with Light Rain 43 6.1 41 5.2 94 94 NNE 20 31 29.97 1015 7 11.26538 0.01 0.254
12:35 pm 12:35 Cloudy with Light Rain 43 6.1 41 5.1 93 93 NNE 21 33 29.94 1014 7 11.26538 0.02 0.508
12:55 pm 12:55 Cloudy with Light Rain 43 6.2 41 5 92 92 N 22 35 29.94 1014 10 16.0934 0.02 0.508
1:15 pm 13:15 Cloudy with Light Rain 43 6 40 4.6 91 91 NNE 26 43 29.94 1014 7 11.26538 0.01 0.254
1:35 pm 13:35 Cloudy with Light Rain 42 5.8 40 4.5 91 91 NNE 24 39 29.94 1014 5 8.0467 0.02 0.508
1:55 pm 13:55 Cloudy with Light Rain 43 6 40 4.5 90 90 NNE 22 35 29.91 1013 7 11.26538 0.03 0.762
2:15 pm 14:15 Cloudy with Rain 43 6 40 4.7 91 91 N 22 35 29.91 1013 7 11.26538 0.01 0.254
2:35 pm 14:35 Cloudy with Light Rain 42 5.8 40 4.5 91 91 NNE 23 37 29.91 1013 5 8.0467 0.04 1.016
2:55 pm 14:55 Cloudy with Light Rain 42 5.6 40 4.3 91 91 NNE 29 46 29.91 1013 4 6.43736 0.06 1.524
3:15 pm 15:15 Cloudy with Light Rain 41 5 39 3.7 91 91 NNE 29 46 29.91 1013 5 8.0467 0.03 0.762
3:35 pm 15:35 Cloudy with Light Rain 41 4.9 38 3.6 91 91 NNE 21 33 29.91 1013 10 16.0934 0.04 1.016
3:55 pm 15:55 Cloudy with Light Rain 41 4.9 38 3.5 91 91 NNE 26 43 29.91 1013 4 6.43736 0.06 1.524
4:15 pm 16:15 Cloudy with Light Rain 40 4.3 37 3 91 91 NNE 21 33 29.94 1014 4 6.43736 0.02 0.508
4:35 pm 16:35 Cloudy with Rain 39 4 37 3 93 93 NNE 23 37 29.94 1014 5 8.0467 0.04 1.016
4:55 pm 16:55 Cloudy with Rain 39 4 37 2.7 91 91 N 26 43 29.94 1014 4 6.43736 0.07 1.778
5:15 pm 17:15 Cloudy with Rain 39 3.7 36 2.3 91 91 N 25 41 29.91 1013 5 8.0467 0.02 0.508
5:35 pm 17:35 Cloudy with Light Rain 38 3.6 36 2.3 91 91 N 25 41 29.91 1013 4 6.43736 0.05 1.27
5:55 pm 17:55 Cloudy with Rain 39 3.7 37 2.5 92 92 N 23 37 29.91 1013 7 11.26538 0.07 1.778
6:15 pm 18:15 Cloudy with Rain 38 3.6 36 2.3 91 91 N 22 35 29.91 1013 5 8.0467 0.02 0.508
6:35 pm 18:35 Cloudy with Rain 39 3.7 37 2.5 92 92 N 21 33 29.94 1014 5 8.0467 0.05 1.27
6:55 pm 18:55 Cloudy with Rain 39 3.7 36 2.4 91 91 N 20 31 29.94 1014 5 8.0467 0.1 2.54
7:15 pm 19:15 Cloudy with Light Rain 38 3.6 36 2.3 91 91 N 22 35 29.94 1014 5 8.0467 0.05 1.27
7:35 pm 19:35 Cloudy with Light Rain 39 3.8 37 2.6 92 92 N 24 39 29.94 1014 5 8.0467 0.08 2.032
7:55 pm 19:55 Cloudy with Rain 38 3.6 36 2.3 91 91 N 23 37 29.94 1014 5 8.0467 0.11 2.794
8:15 pm 20:15 Cloudy with Rain 39 3.7 37 2.6 93 93 N 23 37 29.94 1014 7 11.26538 0.03 0.762
8:35 pm 20:35 Cloudy with Light Rain 38 3.5 36 2.4 93 93 N 25 41 29.94 1014 10 16.0934 0.04 1.016
8:55 pm 20:55 Cloudy with Light Rain 38 3.3 36 2 91 91 N 17 28 29.94 1014 10 16.0934 0.05 1.27
9:15 pm 21:15 Cloudy with Light Drizzle 37 2.9 35 1.6 91 91 N 20 31 29.94 1014 10 16.0934 0 0
9:35 pm 21:35 Cloudy with Light Rain 37 2.7 35 1.5 92 92 N 16 26 29.94 1014 10 16.0934 0 0
9:55 pm 21:55 Cloudy with Light Rain 37 3 36 2 93 93 N 20 31 29.91 1013 10 16.0934 0.02 0.508
10:15 pm 22:15 Cloudy with Light Rain 37 3 36 2 93 93 N 15 24 29.91 1013 10 16.0934 0 0
10:35 pm 22:35 Cloudy with Rain 38 3.3 36 2.3 93 93 N 18 30 29.91 1013 10 16.0934 0.01 0.254
10:55 pm 22:55 Cloudy with Rain 38 3.5 36 2.3 92 92 N 18 30 29.91 1013 10 16.0934 0.03 0.762
11:15 pm 23:15 Cloudy with Rain 38 3.6 37 2.5 93 93 N 20 31 29.88 1012 10 16.0934 0.02 0.508
11:35 pm 23:35 Cloudy with Light Rain 39 3.7 37 2.6 93 93 N 18 30 29.88 1012 10 16.0934 0.02 0.508
11:55 pm 23:55 Cloudy with Light Drizzle 38 3.5 36 2.3 92 92 N 15 24 29.88 1012 10 16.0934 0.02 0.508

Powered by AerisWeather